Location: Casco Millpond
(44.5581°N, 87.6111°W)
Time: 09:05:00
(UTC+00:00)

USA 32 - Pass Details

Date: 16 January 2026
Orbit: 774 x 780 km, 85.0° (Epoch: 9 February)

Event Time Altitude Azimuth Distance (km) Brightness Sun altitude
Rises 12:15:21 0° 200° (SSW) 3,251 7.2 -11.9°
Reaches altitude 10° 12:17:47 10° 206° (SSW) 2,328 6.4 -11.5°
Maximum altitude 12:22:48 47° 280° (W) 1,025 4.3 -10.6°
Drops below altitude 10° 12:27:53 10° 354° (N) 2,343 6.3 -9.8°
Sets 12:30:20 0° 0° (N) 3,275 7.1 -9.4°
